Regional Weather Roundup
Issued by NWS

Home | Current Version | Previous Version | Text Only | Print | Product List | Glossary On
Versions: 1 2 3 4 5 6 7 8 9 10 11 12 13 14 15 16 17 18 19 20 21 22 23 24 25 26 27 28 29 30 31 32 33 34 35 36 37 38 39 40 41 42 43 44 45 46 47 48 49 50
000
ASUS43 KTOP 300108
RWRKS

WEATHER ROUNDUP FOR KANSAS
NATIONAL WEATHER SERVICE GOODLAND KS
800 PM CDT SAT AUG 29 2015

NOTE:  "FAIR" INDICATES FEW OR NO CLOUDS BELOW 12,000 FEET WITH NO
SIGNIFICANT WEATHER AND/OR OBSTRUCTIONS TO VISIBILITY.

KSZ001>006-013>018-027>032-041>047-300200-
NORTHWEST KANSAS

CITY           SKY/WX    TMP DP  RH WIND       PRES   REMARKS
GOODLAND       PTCLDY    79  43  27 S8        30.09S
HAYS           CLEAR     79  55  44 E8        30.03S
HILL CITY      CLEAR     77  56  48 E7        30.05R
RUSSELL        CLEAR     73  63  70 E7        30.02S
$$

KSZ061>065-074>080-084>089-300200-
SOUTHWEST KANSAS

CITY           SKY/WX    TMP DP  RH WIND       PRES   REMARKS
DODGE CITY     CLEAR     75  54  47 NE3       30.06S
ELKHART          N/A     77  57  50 SE6         N/A
GARDEN CITY    CLEAR     78  54  43 SE8       30.07S
GREAT BEND     CLEAR     77  59  53 E8        30.02S
LIBERAL        CLEAR     81  52  36 E7        30.10S
PRATT          CLEAR     75  59  57 E7        30.05R
$$

KSZ066>073-081>083-090>101-300200-
SOUTHEAST KANSAS

CITY           SKY/WX    TMP DP  RH WIND       PRES   REMARKS
CHANUTE        CLEAR     74  66  76 N6        29.99S
COFFEYVILLE    CLEAR     76  68  76 N5        29.97S
HUTCHINSON     CLEAR     69  61  75 E10       30.03S
MEDICINE LODGE   N/A     76  64  66 E8        30.00S
NEWTON         CLOUDY    70  57  64 NE5       30.05S
PARSONS        CLEAR     74  68  81 CALM      29.99S
WICHITA INTL   PTCLDY    70  61  73 NE8       30.01F
WICHITA JABRA  CLEAR     67  63  87 N5        30.02S
WICHITA MCCONL CLEAR     69  59  70 NE8       30.01F
$$

KSZ007>012-019>026-033>040-048>060-102>105-300200-
NORTHEAST KANSAS

CITY           SKY/WX    TMP DP  RH WIND       PRES   REMARKS
CONCORDIA      PTCLDY    68  64  87 SE6       30.03S
EMPORIA        MOCLDY    69  63  81 CALM      30.02S
LAWRENCE       CLOUDY    72  67  84 CALM      30.01S
MANHATTAN      CLOUDY    70  64  81 N5        30.02S
MARYSVILLE     CLOUDY   N/A N/A N/A E3        30.04S
OLATHE IND     CLOUDY    72  68  87 N7        30.01S
OLATHE EXE     CLOUDY    73  68  84 N7        30.00S
SALINA         MOCLDY    72  62  71 E8        30.03S
TOPEKA BILLARD CLOUDY    73  67  81 CALM      30.01S
TOPEKA FORBES  CLOUDY    74  66  76 CALM      30.02R
$$


USA.gov is the U.S. government's official web portal to all federal, state and local government web resources and services.